Date String (YYYY-MM-DD hh:mm:ss) UTC,Instrument flags,Ambient pressure (hPa),Sample flow (lpm),Bypass flow (lpm),Sample temperature (°C),Ambient temperature (°C),ASC tube jacket temperature (°C),LED temperature (°C),Box temperature (°C),Sample RH (%),Span deviation,Mass concentration (μg/m³),Mass concentration (μg/m³),Mass concentration (μg/m³)
DateTimeUTC,F1_M11,P_M11,Q1_M11,Q2_M11,T1_M11,T2_M11,T3_M11,T4_M11,T5_M11,U1_M11,ZSPAN_M11,X0_M11,X2_M11,X1_M11
2022-11-28 20:00:00,,0808.6,5.01,0.00,22.8,21.4,00.0,31.7,24.5,09.5,0000.0,0001.99,0000.58,0000.41
2022-11-28 20:01:00,,0808.7,5.00,0.00,22.8,21.4,00.0,31.7,24.6,09.4,0000.0,0002.04,0000.60,0000.42
2022-11-28 20:02:00,,0808.5,4.99,0.00,22.8,21.4,00.0,31.7,24.6,09.6,0000.0,0002.09,0000.61,0000.42
2022-11-28 20:03:00,,0808.6,5.00,0.00,22.8,21.4,00.0,31.7,24.6,09.7,0000.0,0002.07,0000.60,0000.42
2022-11-28 20:04:00,,0808.6,5.00,0.00,22.8,21.4,00.0,31.7,24.6,09.7,0000.0,0001.99,0000.59,0000.42
2022-11-28 20:05:00,,0808.7,5.02,0.00,22.8,21.4,00.0,31.7,24.6,09.6,0000.0,0002.03,0000.60,0000.42
2022-11-28 20:06:00,,0808.6,5.00,0.00,22.8,21.3,00.0,31.7,24.5,09.5,0000.0,0001.78,0000.57,0000.41
2022-11-28 20:07:00,,0808.7,4.98,0.00,22.8,21.3,00.0,31.7,24.5,09.8,0000.0,0001.03,0000.56,0000.41
2022-11-28 20:08:00,,0808.5,5.00,0.00,22.8,21.3,00.0,31.7,24.6,10.0,0000.0,0001.10,0000.58,0000.41
2022-11-28 20:09:00,,0808.5,5.00,0.00,22.8,21.3,00.0,31.7,24.6,10.0,0000.0,0001.09,0000.58,0000.41
2022-11-28 20:10:00,,0808.5,5.00,0.00,22.8,21.3,00.0,31.7,24.6,10.0,0000.0,0001.15,0000.60,0000.41
2022-11-28 20:11:00,,0808.4,5.00,0.00,22.8,21.3,00.0,31.7,24.6,10.0,0000.0,0001.21,0000.62,0000.41
2022-11-28 20:12:00,,0808.5,4.99,0.00,22.8,21.3,00.0,31.7,24.5,10.0,0000.0,0001.17,0000.61,0000.41
2022-11-28 20:13:00,,0808.5,5.01,0.00,22.8,21.3,00.0,31.7,24.5,10.1,0000.0,0001.10,0000.59,0000.40
2022-11-28 20:14:00,,0808.4,5.01,0.00,22.7,21.3,00.0,31.7,24.5,10.1,0000.0,0001.03,0000.59,0000.40
2022-11-28 20:15:00,,0808.4,5.00,0.00,22.7,21.3,00.0,31.7,24.4,10.2,0000.0,0001.04,0000.60,0000.39
2022-11-28 20:16:00,,0808.5,4.99,0.00,22.7,21.3,00.0,31.6,24.5,10.1,0000.0,0001.09,0000.62,0000.38
2022-11-28 20:17:00,,0808.5,5.00,0.00,22.7,21.2,00.0,31.6,24.4,10.0,0000.0,0001.14,0000.63,0000.38
2022-11-28 20:18:00,,0808.4,5.00,0.00,22.7,21.2,00.0,31.6,24.4,10.1,0000.0,0001.14,0000.63,0000.38
2022-11-28 20:19:00,,0808.5,5.00,0.00,22.7,21.2,00.0,31.6,24.5,10.0,0000.0,0001.17,0000.65,0000.38
2022-11-28 20:20:00,,0808.4,5.00,0.00,22.7,21.2,00.0,31.6,24.5,10.0,0000.0,0001.26,0000.66,0000.38
2022-11-28 20:21:00,,0808.4,5.00,0.00,22.7,21.2,00.0,31.6,24.5,09.9,0000.0,0001.76,0000.67,0000.40
2022-11-28 20:22:00,,0808.4,4.99,0.00,22.7,21.2,00.0,31.6,24.4,10.0,0000.0,0001.73,0000.66,0000.40
2022-11-28 20:23:00,,0808.4,4.99,0.00,22.7,21.2,00.0,31.6,24.5,09.9,0000.0,0001.76,0000.66,0000.40
2022-11-28 20:24:00,,0808.4,5.01,0.00,22.7,21.2,00.0,31.6,24.5,09.7,0000.0,0001.81,0000.68,0000.40
2022-11-28 20:25:00,,0808.4,5.00,0.00,22.7,21.2,00.0,31.6,24.5,09.9,0000.0,0001.78,0000.66,0000.39
2022-11-28 20:26:00,,0808.5,4.99,0.00,22.7,21.2,00.0,31.6,24.4,10.0,0000.0,0001.79,0000.67,0000.40
2022-11-28 20:27:00,,0808.4,5.00,0.00,22.7,21.2,00.0,31.6,24.4,10.3,0000.0,0002.75,0000.68,0000.40
2022-11-28 20:28:00,,0808.4,4.99,0.00,22.7,21.2,00.0,31.6,24.4,10.4,0000.0,0002.75,0000.67,0000.41
2022-11-28 20:29:00,,0808.3,5.01,0.00,22.7,21.1,00.0,31.6,24.4,10.3,0000.0,0002.80,0000.67,0000.41
2022-11-28 20:30:00,,0808.3,5.01,0.00,22.6,21.1,00.0,31.6,24.3,10.3,0000.0,0002.73,0000.65,0000.40
2022-11-28 20:31:00,,0808.3,5.00,0.00,22.6,21.1,00.0,31.6,24.3,10.2,0000.0,0002.74,0000.66,0000.40
2022-11-28 20:32:00,,0808.3,4.99,0.00,22.6,21.1,00.0,31.6,24.3,10.3,0000.0,0002.16,0000.64,0000.39
2022-11-28 20:33:00,,0808.3,5.00,0.00,22.6,21.1,00.0,31.6,24.4,10.4,0000.0,0002.12,0000.62,0000.38
2022-11-28 20:34:00,,0808.3,5.01,0.00,22.6,21.1,00.0,31.6,24.4,10.4,0000.0,0002.14,0000.63,0000.38
2022-11-28 20:35:00,,0808.2,5.01,0.00,22.6,21.1,00.0,31.6,24.3,10.3,0000.0,0002.20,0000.64,0000.39
2022-11-28 20:36:00,,0808.2,5.00,0.00,22.6,21.1,00.0,31.5,24.3,10.3,0000.0,0002.23,0000.64,0000.39
2022-11-28 20:37:00,,0808.2,5.00,0.00,22.6,21.1,00.0,31.5,24.3,10.3,0000.0,0002.43,0000.65,0000.39
2022-11-28 20:38:00,,0808.2,4.99,0.00,22.6,21.1,00.0,31.6,24.4,10.3,0000.0,0001.41,0000.63,0000.40
2022-11-28 20:39:00,,0808.3,4.99,0.00,22.6,21.0,00.0,31.6,24.4,10.6,0000.0,0001.45,0000.64,0000.40
2022-11-28 20:40:00,,0808.2,5.01,0.00,22.6,21.1,00.0,31.5,24.4,10.6,0000.0,0002.54,0000.63,0000.40
2022-11-28 20:41:00,,0808.3,5.00,0.00,22.6,21.1,00.0,31.5,24.3,10.5,0000.0,0002.61,0000.63,0000.41
2022-11-28 20:42:00,,0808.2,4.99,0.00,22.6,21.0,00.0,31.5,24.3,10.5,0000.0,0002.62,0000.63,0000.40
2022-11-28 20:43:00,,0808.2,4.99,0.00,22.5,21.0,00.0,31.5,24.2,10.7,0000.0,0002.73,0000.66,0000.41
2022-11-28 20:44:00,,0808.2,5.01,0.00,22.5,21.0,00.0,31.5,24.2,10.3,0000.0,0002.94,0000.67,0000.41
2022-11-28 20:45:00,,0808.1,5.00,0.00,22.5,21.0,00.0,31.5,24.2,10.5,0000.0,0003.43,0000.67,0000.41
2022-11-28 20:46:00,,0808.2,4.99,0.00,22.5,21.0,00.0,31.5,24.2,10.5,0000.0,0003.47,0000.71,0000.41
2022-11-28 20:47:00,,0808.1,4.99,0.00,22.5,21.0,00.0,31.5,24.2,10.3,0000.0,0003.61,0000.73,0000.40
2022-11-28 20:48:00,,0808.2,5.01,0.00,22.5,21.0,00.0,31.5,24.2,10.3,0000.0,0003.42,0000.73,0000.41
2022-11-28 20:49:00,,0808.1,5.01,0.00,22.5,21.0,00.0,31.5,24.2,10.4,0000.0,0003.45,0000.75,0000.41
2022-11-28 20:50:00,,0808.2,5.01,0.00,22.5,21.0,00.0,31.5,24.2,10.3,0000.0,0003.41,0000.75,0000.41
2022-11-28 20:51:00,,0808.2,5.00,0.00,22.5,21.0,00.0,31.5,24.1,10.2,0000.0,0002.20,0000.75,0000.41
2022-11-28 20:52:00,,0808.2,5.00,0.00,22.4,21.0,00.0,31.5,24.1,10.4,0000.0,0002.18,0000.76,0000.42
2022-11-28 20:53:00,,0808.3,5.00,0.00,22.4,21.0,00.0,31.4,24.1,10.3,0000.0,0002.29,0000.79,0000.42
2022-11-28 20:54:00,,0808.3,5.00,0.00,22.4,21.0,00.0,31.4,24.2,10.4,0000.0,0002.23,0000.78,0000.42
2022-11-28 20:55:00,,0808.2,5.00,0.00,22.4,21.0,00.0,31.4,24.2,10.5,0000.0,0002.10,0000.78,0000.43
2022-11-28 20:56:00,,0808.2,5.00,0.00,22.4,20.9,00.0,31.4,24.1,10.2,0000.0,0001.58,0000.79,0000.43
2022-11-28 20:57:00,,0808.2,5.00,0.00,22.4,20.9,00.0,31.4,24.1,10.0,0000.0,0001.57,0000.77,0000.44
2022-11-28 20:58:00,,0808.1,4.99,0.00,22.4,20.9,00.0,31.4,24.1,10.0,0000.0,0001.41,0000.75,0000.45
2022-11-28 20:59:00,,0808.2,5.00,0.00,22.4,20.9,00.0,31.4,24.1,10.2,0000.0,0001.35,0000.73,0000.45
